• MPC Preparation (Info)

  • MPEC 2017-B33 : 2017 BV

    The following Minor Planet Electronic Circular may be linked-to from your own Web pages, but must not otherwise be redistributed electronically.

    A form allowing access to any MPEC is at the bottom of this page.


    Read MPEC 2017-B32 Read MPEC 2017-B34


    M.P.E.C. 2017-B33                                Issued 2017 Jan. 21, 19:39 UT
    
         The Minor Planet Electronic Circulars contain information on unusual
             minor planets and routine data on comets.  They are published
        on behalf of Division F of the International Astronomical Union by the
              Minor Planet Center, Smithsonian Astrophysical Observatory,
                              Cambridge, MA 02138, U.S.A.
    
                 Prepared using the Tamkin Foundation Computer Network
    
                                  MPC@CFA.HARVARD.EDU
                URL https://www.minorplanetcenter.net/    ISSN 1523-6714
    
                                        2017 BV
    
    Observations:
         K17B00V* C2017 01 19.32506 08 03 56.88 +27 27 06.9          20.1 VqEB033G96
         K17B00V  C2017 01 19.32931 08 03 59.02 +27 28 15.8          19.7 VqEB033G96
         K17B00V  C2017 01 19.33359 08 04 01.05 +27 29 26.6          19.8 VqEB033G96
         K17B00V  C2017 01 19.33787 08 04 03.18 +27 30 36.1          20.5 VqEB033G96
         K17B00V  C2017 01 19.35788 08 04 13.00 +27 36 00.5          20.2 VqEB033G96
         K17B00V  C2017 01 19.35832 08 04 13.22 +27 36 07.8          20.5 VqEB033G96
         K17B00V  C2017 01 19.35873 08 04 13.44 +27 36 14.5          19.7 VqEB033G96
         K17B00V  C2017 01 19.35914 08 04 13.60 +27 36 20.4          19.8 VqEB033G96
         K17B00V KC2017 01 19.81514 08 08 33.99 +29 31 48.9                qEB033J95
         K17B00V KC2017 01 19.82476 08 08 38.86 +29 34 12.8                qEB033J95
         K17B00V KC2017 01 19.83169 08 08 42.35 +29 35 54.3          20.0 RqEB033J95
         K17B00V KC2017 01 19.89341 08 09 10.17 +29 51 23.8          19.6 RoEB033K88
         K17B00V KC2017 01 19.89643 08 09 13.18 +29 52 14.0          19.2  tEB033104
         K17B00V KC2017 01 19.89686 08 09 11.71 +29 52 14.0          19.6 RoEB033K88
         K17B00V KC2017 01 19.90030 08 09 13.29 +29 53 03.5          19.4 RoEB033K88
         K17B00V KC2017 01 19.90785 08 09 18.55 +29 54 59.5          19.7  tEB033104
         K17B00V KC2017 01 19.91203 08 09 20.46 +29 56 00.5          19.6  tEB033104
         K17B00V KC2017 01 19.92306 08 09 24.93 +29 58 33.7          20.1 VSEB033595
         K17B00V KC2017 01 19.93098 08 09 28.58 +30 00 26.8          20.1 VSEB033595
         K17B00V KC2017 01 20.88115 08 17 09.79 +33 21 44.1          19.9 RoEB033K88
         K17B00V KC2017 01 20.88524 08 17 11.45 +33 22 32.0          19.9 RoEB033K88
         K17B00V KC2017 01 20.88932 08 17 13.03 +33 23 18.9          19.8 RoEB033K88
         K17B00V HC2017 01 21.14499 08 18 55.26 +34 10 04.4                UEB033204
         K17B00V KC2017 01 21.15533 08 18 59.42 +34 11 52.3          20.4 GUEB033204
         K17B00V KC2017 01 21.16611 08 19 03.89 +34 13 44.0                UEB033204
    
    Observer details:
    104 San Marcello Pistoiese.  Observers P. Bacci, M. Maestripieri.  Measurers
        P. Bacci, L. Tesi, G. Fagioli.  0.60-m f/4 reflector + CCD.
    204 Schiaparelli Observatory.  Observer L. Buzzi.  0.60-m f/4.64 reflector
        + CCD.
    595 Farra d'Isonzo.  Observers M. Ceschia, G. Ierman, E. Pettarin.  Measurer
        E. Pettarin.  0.61-m f/4.0 reflector + CCD.
    G96 Mt. Lemmon Survey.  Observer G. J. Leonard.  Measurers E. J. Christensen,
        D. C. Fuls, A. R. Gibbs, A. D. Grauer, J. A. Johnson, R. A. Kowalski,
        S. M. Larson, G. J. Leonard, R. G. Matheny, R. L. Seaman, F. C. Shelly.
        1.5-m reflector + 10K CCD.
    J95 Great Shefford.  Observer P. Birtwhistle.  0.40-m f/6.0 Schmidt-Cassegrain
        + CCD.
    K88 GINOP-KHK, Piszkesteto.  Observer K. Sarneczky.  0.60-m Schmidt + CCD.
    
    Orbital elements:
    2017 BV                                                  Earth MOID = 0.0273 AU
    Epoch 2017 Feb. 16.0 TT = JDT 2457800.5                 MPC
    M  39.66247              (2000.0)            P               Q
    n   0.54822881     Peri.  306.23107     +0.41648668     -0.88478730
    a   1.4785232      Node   117.87493     +0.89142834     +0.35226896
    e   0.3870947      Incl.   13.67761     +0.17858991     +0.30505412
    P   1.80           H   26.0           G   0.15           U   7
    Residuals in seconds of arc
    170119 G96  0.5-  0.1-    170119 J95  0.0   0.7+    170119 595  0.4-  0.5-
    170119 G96  0.3+  0.7-    170119 J95  0.1+  0.8-    170120 K88  0.0   0.1-
    170119 G96  0.6-  0.3+    170119 K88  0.6+  0.0     170120 K88  0.2+  0.6+
    170119 G96  0.1-  0.0     170119 104  0.5-  0.5-    170120 K88  0.5-  0.4+
    170119 G96  0.2+  0.1+    170119 K88  0.3-  0.4+    170121 204  0.1+  0.6-
    170119 G96  0.2+  0.3+    170119 K88  0.5-  0.3+    170121 204  0.4-  0.1-
    170119 G96  0.5+  0.4+    170119 104  0.5+  0.2-    170121 204  0.5+  0.0
    170119 G96  0.1-  0.3-    170119 104  0.2+  0.5+
    170119 J95  0.1+  0.1+    170119 595  0.5-  0.3-
    
    Ephemeris:
    2017 BV                  a,e,i = 1.48, 0.39, 14                  q = 0.9062
    Date    TT    R. A. (2000) Decl.     Delta      r     Elong.  Phase     V
    2016 12 22    22 58 58.8 -64 38 42   0.1478  0.9242    62.3   109.6    25.8
    ...
    2017 01 06    02 12 51.7 -67 32 26   0.05751 0.9702    75.2   101.5    23.4
    ...
    2017 01 14    06 44 09.0 -19 03 55   0.02735 1.0038   137.1    41.8    19.8
    ...
    2017 01 20    08 10 01.3 +30 17 17   0.04881 1.0321   169.9     9.6    20.1
    2017 01 21    08 17 58.6 +33 44 36   0.05443 1.0370   166.2    13.1    20.5
    2017 01 22    08 24 53.1 +36 30 20   0.06028 1.0420   163.1    15.9    20.9
    ...
    2017 01 28    08 52 00.1 +45 18 28   0.09813 1.0731   152.9    24.7    22.3
    ...
    2017 02 05    09 09 15.8 +49 01 37   0.1526  1.1170   147.0    28.8    23.4
    ...
    2017 02 20    09 24 00.8 +49 23 46   0.2641  1.2038   140.3    31.7    24.9
    
    A. U. Tomatic                (C) Copyright 2017 MPC           M.P.E.C. 2017-B33
    

    Read MPEC 2017-B32 Read MPEC 2017-B34


    MPEC number:

    Enter an MPEC number in one of the following forms:

    • 1997-B01 (the full form)
    • J97B01 (the packed version of the full form)
    • B01 (the abbreviated form)